Simultaneous Nadir Overpasses (SNOs) Predictions

Prediction of SNOs between METOP-B and NOAA-19 Satellite Orbit:

Table of predicted SNOs for the next 14.0 days since TLE Epoch: 9/11/2021
Index Date (METOP-B) Time (METOP-B) Lat,Lon (METOP-B) SZA (METOP-B ) Date (NOAA-19) Time (NOAA-19) Lat,Lon (NOAA-19) SZA (NOAA-19 ) Distance(km) Time Diff (sec)
1 09/19/2021 11:05:41 -80.64,-136.18 99.29 09/19/2021 11:04:37 -80.63,-136.27 99.32 1.82 64
2 09/19/2021 11:56:22 80.63, 30.97 80.71 09/19/2021 11:55:41 80.64, 30.81 80.69 3.17 41
3 09/19/2021 12:47:03 -80.63,-161.66 99.28 09/19/2021 12:46:37 -80.63,-161.68 99.29 0.50 26
4 09/19/2021 13:37:43 80.64, 5.83 80.76 09/19/2021 13:37:40 80.62, 5.75 80.74 2.33 3
5 09/19/2021 14:28:25 -80.62, 172.86 99.27 09/19/2021 14:28:37 -80.63, 172.90 99.26 1.00 12
6 09/19/2021 15:19:05 80.63, -19.66 80.77 09/19/2021 15:19:40 80.62, -19.66 80.77 1.25 35
7 09/19/2021 16:09:47 -80.61, 147.38 99.26 09/19/2021 16:10:37 -80.62, 147.49 99.22 2.36 50



Historial Predications of SNOs between METOP-B and NOAA-19
